RINGO25 KHIF-KPDX

Flight info

Callsign RINGO25
Flight time 1h 19m
Altitude 50000
Route LGTNG1 FUUJN RIDEN PARKA TWF J15 IMB JOTBA HHOOD6
Aircraft F35/H-SDRTUY/LB1

Departure

Time 2026-04-15 01:55
Airport Hill Air Force Base (KHIF)

Arrival

Time 2026-04-15 03:14
Airport Portland International Airport (KPDX)
Time Latitude Longitude Altitude Speed Heading
2026-04-15 01:43 41.12030 -111.98296 4853 ft 0 kts 53°
2026-04-15 01:49 41.12052 -111.98261 4851 ft 8 kts 50°
2026-04-15 01:50 41.12080 -111.98182 4851 ft 13 kts 46°
2026-04-15 01:50 41.12133 -111.98099 4851 ft 11 kts 50°
2026-04-15 01:50 41.12179 -111.98025 4851 ft 10 kts 50°
2026-04-15 01:50 41.12242 -111.97923 4852 ft 18 kts 50°
2026-04-15 01:51 41.12318 -111.97803 4853 ft 16 kts 50°
2026-04-15 01:51 41.12373 -111.97689 4853 ft 14 kts 88°
2026-04-15 01:51 41.12305 -111.97566 4852 ft 23 kts 152°
2026-04-15 01:51 41.12164 -111.97472 4853 ft 22 kts 153°
2026-04-15 01:52 41.12035 -111.97384 4854 ft 20 kts 153°
2026-04-15 01:52 41.11915 -111.97303 4854 ft 18 kts 153°
2026-04-15 01:52 41.11801 -111.97225 4853 ft 21 kts 153°
2026-04-15 01:52 41.11676 -111.97140 4854 ft 20 kts 153°
2026-04-15 01:53 41.11559 -111.97062 4853 ft 18 kts 153°
2026-04-15 01:53 41.11433 -111.96977 4854 ft 24 kts 152°
2026-04-15 01:53 41.11281 -111.96873 4854 ft 24 kts 152°
2026-04-15 01:53 41.11115 -111.96759 4855 ft 30 kts 153°
2026-04-15 01:54 41.10939 -111.96641 4854 ft 27 kts 153°
2026-04-15 01:54 41.10779 -111.96533 4855 ft 23 kts 153°
2026-04-15 01:54 41.10688 -111.96395 4854 ft 21 kts 77°
2026-04-15 01:54 41.10757 -111.96235 4853 ft 20 kts 31°
2026-04-15 01:55 41.10913 -111.96304 4853 ft 64 kts 333°
2026-04-15 01:55 41.11851 -111.96934 4857 ft 231 kts 333°
2026-04-15 01:55 41.13319 -111.97930 5350 ft 209 kts 334°
2026-04-15 01:55 41.14499 -111.98714 5955 ft 177 kts 326°
2026-04-15 01:56 41.14638 -112.00169 5764 ft 199 kts 224°
2026-04-15 01:56 41.13281 -112.01401 6538 ft 279 kts 220°
2026-04-15 01:56 41.12149 -112.03549 6666 ft 298 kts 237°
2026-04-15 01:56 41.10980 -112.06030 6530 ft 339 kts 242°
2026-04-15 01:57 41.10407 -112.09059 6964 ft 344 kts 267°
2026-04-15 01:57 41.10569 -112.12164 8400 ft 331 kts 276°
2026-04-15 01:57 41.10388 -112.15132 10198 ft 322 kts 259°
2026-04-15 01:57 41.09957 -112.18199 12135 ft 358 kts 262°
2026-04-15 01:58 41.09581 -112.21862 13477 ft 429 kts 265°
2026-04-15 01:58 41.09559 -112.25846 14877 ft 431 kts 278°
2026-04-15 01:58 41.10109 -112.29736 16716 ft 427 kts 286°
2026-04-15 01:58 41.11086 -112.33337 18635 ft 415 kts 294°
2026-04-15 01:59 41.12392 -112.36700 20320 ft 409 kts 304°
2026-04-15 01:59 41.14084 -112.39730 21658 ft 409 kts 309°
2026-04-15 01:59 41.15830 -112.42730 22717 ft 419 kts 309°
2026-04-15 01:59 41.17660 -112.45884 22924 ft 444 kts 309°
2026-04-15 02:00 41.19601 -112.49231 22977 ft 472 kts 309°
2026-04-15 02:00 41.21666 -112.52662 23646 ft 481 kts 314°
2026-04-15 02:00 41.23987 -112.55904 24356 ft 482 kts 315°
2026-04-15 02:00 41.26194 -112.59173 25071 ft 469 kts 313°
2026-04-15 02:01 41.28329 -112.62365 25798 ft 454 kts 314°
2026-04-15 02:01 41.30449 -112.65432 26562 ft 453 kts 314°
2026-04-15 02:01 41.32526 -112.68527 28020 ft 441 kts 314°
2026-04-15 02:01 41.34568 -112.71547 30032 ft 442 kts 315°
2026-04-15 02:02 41.36648 -112.74602 31996 ft 447 kts 315°
2026-04-15 02:02 41.38725 -112.77693 34195 ft 446 kts 315°
2026-04-15 02:02 41.40783 -112.80736 36329 ft 435 kts 314°
2026-04-15 02:02 41.42764 -112.83667 38700 ft 411 kts 313°
2026-04-15 02:03 41.44593 -112.86387 40611 ft 384 kts 312°
2026-04-15 02:03 41.46342 -112.88983 41666 ft 369 kts 311°
2026-04-15 02:03 41.48027 -112.91492 42473 ft 364 kts 311°
2026-04-15 02:03 41.49734 -112.94035 43315 ft 370 kts 310°
2026-04-15 02:04 41.51460 -112.96605 44194 ft 373 kts 310°
2026-04-15 02:04 41.53184 -112.99176 45042 ft 370 kts 309°
2026-04-15 02:04 41.54874 -113.01703 45834 ft 359 kts 310°
2026-04-15 02:04 41.56497 -113.04124 46626 ft 337 kts 309°
2026-04-15 02:05 41.58011 -113.06384 47178 ft 319 kts 309°
2026-04-15 02:05 41.59461 -113.08559 47210 ft 307 kts 309°
2026-04-15 02:05 41.60866 -113.10663 47025 ft 299 kts 309°
2026-04-15 02:05 41.62228 -113.12702 46781 ft 289 kts 308°
2026-04-15 02:06 41.63548 -113.14683 46466 ft 282 kts 309°
2026-04-15 02:06 41.64405 -113.15976 46217 ft 279 kts 309°
2026-04-15 02:06 41.66228 -113.18721 44980 ft 309 kts 309°
2026-04-15 02:06 41.67679 -113.20883 44598 ft 315 kts 309°
2026-04-15 02:07 41.69148 -113.23099 44355 ft 322 kts 309°
2026-04-15 02:07 41.70659 -113.25379 44174 ft 334 kts 309°
2026-04-15 02:07 41.73798 -113.30095 44437 ft 346 kts 309°
2026-04-15 02:08 41.75408 -113.32528 44698 ft 351 kts 309°
2026-04-15 02:08 41.77043 -113.34995 44996 ft 358 kts 309°
2026-04-15 02:08 41.78148 -113.36662 45146 ft 364 kts 309°
2026-04-15 02:08 41.79861 -113.39252 45330 ft 378 kts 309°
2026-04-15 02:09 41.81642 -113.41948 45545 ft 395 kts 309°
2026-04-15 02:09 41.83545 -113.44728 45861 ft 416 kts 311°
2026-04-15 02:09 41.85490 -113.47746 46278 ft 441 kts 307°
2026-04-15 02:09 41.87496 -113.51062 46834 ft 475 kts 309°
2026-04-15 02:10 41.89749 -113.54558 47387 ft 512 kts 309°
2026-04-15 02:10 41.92065 -113.58290 48150 ft 525 kts 308°
2026-04-15 02:10 41.94423 -113.62068 48966 ft 529 kts 309°
2026-04-15 02:10 41.96808 -113.65850 49618 ft 532 kts 308°
2026-04-15 02:11 41.99182 -113.69683 49874 ft 535 kts 308°
2026-04-15 02:11 42.01574 -113.73508 49970 ft 535 kts 308°
2026-04-15 02:11 42.06305 -113.81117 50000 ft 524 kts 308°
2026-04-15 02:12 42.10963 -113.88614 50004 ft 519 kts 308°
2026-04-15 02:12 42.15585 -113.96080 50006 ft 524 kts 308°
2026-04-15 02:13 42.20330 -114.03764 50004 ft 534 kts 308°
2026-04-15 02:13 42.25081 -114.11480 50003 ft 534 kts 308°
2026-04-15 02:14 42.29823 -114.19196 50008 ft 534 kts 308°
2026-04-15 02:14 42.34535 -114.26886 50013 ft 534 kts 308°
2026-04-15 02:15 42.39267 -114.34628 50025 ft 534 kts 308°
2026-04-15 02:15 42.43991 -114.42380 50031 ft 534 kts 308°
2026-04-15 02:16 42.48701 -114.50166 50044 ft 535 kts 312°
2026-04-15 02:16 42.53639 -114.57721 50034 ft 535 kts 309°
2026-04-15 02:17 42.58572 -114.65291 50025 ft 535 kts 309°
2026-04-15 02:17 42.63468 -114.72884 50009 ft 534 kts 309°
2026-04-15 02:18 42.68341 -114.80498 50009 ft 534 kts 310°
2026-04-15 02:18 42.73216 -114.88110 50011 ft 533 kts 309°
2026-04-15 02:19 42.78087 -114.95715 50016 ft 533 kts 309°
2026-04-15 02:19 42.82942 -115.03329 50016 ft 532 kts 309°
2026-04-15 02:20 42.87788 -115.10956 50014 ft 532 kts 309°
2026-04-15 02:20 42.92594 -115.18532 50013 ft 531 kts 309°
2026-04-15 02:21 42.97431 -115.26175 50004 ft 531 kts 309°
2026-04-15 02:21 43.02250 -115.33813 50007 ft 531 kts 309°
2026-04-15 02:22 43.07064 -115.41464 50002 ft 531 kts 309°
2026-04-15 02:23 43.14195 -115.52832 49986 ft 518 kts 309°
2026-04-15 02:23 43.18884 -115.60331 49978 ft 516 kts 308°
2026-04-15 02:24 43.23544 -115.67803 49985 ft 515 kts 309°
2026-04-15 02:24 43.28164 -115.75230 49987 ft 515 kts 308°
2026-04-15 02:25 43.32805 -115.82711 49989 ft 514 kts 308°
2026-04-15 02:25 43.37434 -115.90191 49990 ft 513 kts 308°
2026-04-15 02:26 43.42058 -115.97682 49985 ft 512 kts 308°
2026-04-15 02:26 43.46630 -116.05108 49982 ft 511 kts 308°
2026-04-15 02:27 43.51246 -116.12625 49980 ft 510 kts 308°
2026-04-15 02:27 43.55494 -116.20422 49996 ft 508 kts 300°
2026-04-15 02:28 43.58593 -116.29105 49996 ft 505 kts 290°
2026-04-15 02:28 43.61520 -116.37921 49963 ft 506 kts 292°
2026-04-15 02:29 43.64397 -116.46738 49960 ft 507 kts 294°
2026-04-15 02:29 43.67297 -116.55612 49964 ft 506 kts 293°
2026-04-15 02:30 43.70205 -116.64459 49973 ft 505 kts 293°
2026-04-15 02:30 43.73100 -116.73312 49972 ft 504 kts 293°
2026-04-15 02:31 43.75971 -116.82147 49972 ft 503 kts 293°
2026-04-15 02:31 43.78829 -116.90958 49974 ft 501 kts 293°
2026-04-15 02:32 43.81675 -116.99758 49966 ft 500 kts 292°
2026-04-15 02:32 43.84505 -117.08544 49965 ft 499 kts 292°
2026-04-15 02:33 43.87321 -117.17314 49961 ft 498 kts 292°
2026-04-15 02:33 43.90135 -117.26105 49973 ft 498 kts 292°
2026-04-15 02:34 43.92939 -117.34897 49976 ft 499 kts 292°
2026-04-15 02:34 43.95725 -117.43659 49969 ft 500 kts 292°
2026-04-15 02:35 43.98526 -117.52502 49975 ft 500 kts 292°
2026-04-15 02:35 44.01324 -117.61358 49976 ft 501 kts 292°
2026-04-15 02:36 44.04115 -117.70230 49984 ft 501 kts 292°
2026-04-15 02:36 44.06905 -117.79125 49988 ft 502 kts 292°
2026-04-15 02:37 44.09688 -117.88029 49991 ft 501 kts 292°
2026-04-15 02:37 44.12465 -117.96941 49986 ft 501 kts 292°
2026-04-15 02:38 44.15230 -118.05852 49988 ft 502 kts 292°
2026-04-15 02:38 44.16637 -118.10397 49991 ft 514 kts 292°
2026-04-15 02:38 44.18051 -118.14967 50004 ft 514 kts 292°
2026-04-15 02:39 44.20871 -118.24118 50027 ft 514 kts 292°
2026-04-15 02:39 44.23673 -118.33241 50030 ft 514 kts 291°
2026-04-15 02:40 44.26480 -118.42410 50038 ft 514 kts 291°
2026-04-15 02:40 44.29277 -118.51582 50042 ft 513 kts 291°
2026-04-15 02:41 44.32065 -118.60756 50051 ft 513 kts 291°
2026-04-15 02:41 44.34854 -118.69964 50044 ft 513 kts 291°
2026-04-15 02:42 44.37626 -118.79153 50034 ft 513 kts 291°
2026-04-15 02:42 44.40390 -118.88348 50030 ft 512 kts 291°
2026-04-15 02:43 44.43140 -118.97527 50031 ft 512 kts 291°
2026-04-15 02:43 44.45881 -119.06712 50030 ft 511 kts 291°
2026-04-15 02:44 44.48596 -119.15840 50028 ft 510 kts 291°
2026-04-15 02:44 44.51313 -119.25009 50043 ft 504 kts 291°
2026-04-15 02:45 44.53973 -119.34017 50027 ft 499 kts 291°
2026-04-15 02:45 44.56614 -119.42996 50024 ft 498 kts 291°
2026-04-15 02:46 44.59245 -119.51972 50032 ft 497 kts 290°
2026-04-15 02:46 44.61867 -119.60948 50034 ft 497 kts 291°
2026-04-15 02:47 44.64715 -119.69786 50035 ft 498 kts 300°
2026-04-15 02:47 44.68864 -119.77599 50066 ft 502 kts 311°
2026-04-15 02:48 44.73658 -119.84753 50038 ft 501 kts 308°
2026-04-15 02:48 44.78344 -119.91952 50024 ft 501 kts 309°
2026-04-15 02:49 44.83021 -119.99239 49999 ft 501 kts 309°
2026-04-15 02:49 44.87700 -120.06534 50023 ft 501 kts 309°
2026-04-15 02:50 44.92384 -120.13820 50031 ft 501 kts 309°
2026-04-15 02:50 44.97061 -120.21125 50030 ft 501 kts 309°
2026-04-15 02:51 45.01735 -120.28452 50028 ft 502 kts 309°
2026-04-15 02:51 45.05619 -120.34553 50028 ft 502 kts 309°
2026-04-15 02:52 45.10292 -120.41908 50024 ft 502 kts 309°
2026-04-15 02:52 45.14928 -120.49304 50024 ft 501 kts 306°
2026-04-15 02:53 45.18901 -120.57354 50049 ft 496 kts 295°
2026-04-15 02:53 45.22093 -120.66035 50024 ft 497 kts 298°
2026-04-15 02:54 45.25402 -120.74652 50009 ft 497 kts 297°
2026-04-15 02:54 45.28706 -120.83193 50005 ft 497 kts 296°
2026-04-15 02:55 45.32015 -120.91823 50001 ft 497 kts 297°
2026-04-15 02:55 45.35300 -121.00459 49995 ft 496 kts 297°
2026-04-15 02:56 45.38475 -121.09192 49999 ft 496 kts 294°
2026-04-15 02:56 45.40669 -121.18440 50010 ft 494 kts 287°
2026-04-15 02:57 45.42875 -121.27699 49996 ft 494 kts 287°
2026-04-15 02:57 45.45033 -121.36983 49995 ft 494 kts 288°
2026-04-15 02:58 45.47163 -121.46277 49990 ft 494 kts 288°
2026-04-15 02:58 45.49305 -121.55598 49993 ft 495 kts 288°
2026-04-15 02:59 45.51436 -121.64870 50004 ft 496 kts 288°
2026-04-15 02:59 45.52427 -121.69593 49854 ft 500 kts 284°
2026-04-15 02:59 45.53171 -121.74482 49104 ft 504 kts 276°
2026-04-15 02:59 45.53384 -121.79475 48358 ft 506 kts 271°
2026-04-15 03:00 45.53429 -121.84497 47558 ft 504 kts 276°
2026-04-15 03:00 45.53729 -121.89485 46764 ft 504 kts 276°
2026-04-15 03:00 45.54111 -121.94467 45983 ft 506 kts 279°
2026-04-15 03:00 45.54653 -121.99428 45197 ft 504 kts 283°
2026-04-15 03:01 45.55598 -122.04213 44411 ft 501 kts 289°
2026-04-15 03:01 45.56710 -122.08943 43551 ft 502 kts 285°
2026-04-15 03:01 45.57608 -122.13743 42725 ft 499 kts 285°
2026-04-15 03:01 45.58606 -122.18472 41932 ft 495 kts 286°
2026-04-15 03:02 45.59542 -122.23112 40498 ft 488 kts 283°
2026-04-15 03:02 45.60452 -122.27717 38688 ft 474 kts 285°
2026-04-15 03:02 45.61417 -122.32164 36670 ft 462 kts 284°
2026-04-15 03:02 45.62282 -122.36545 34819 ft 457 kts 284°
2026-04-15 03:03 45.63189 -122.40860 32725 ft 458 kts 285°
2026-04-15 03:03 45.64207 -122.45285 30667 ft 471 kts 286°
2026-04-15 03:03 45.65404 -122.49724 28488 ft 486 kts 292°
2026-04-15 03:03 45.67051 -122.54034 26316 ft 501 kts 296°
2026-04-15 03:04 45.68778 -122.58440 24296 ft 511 kts 292°
2026-04-15 03:04 45.70238 -122.63121 22199 ft 520 kts 291°
2026-04-15 03:04 45.71990 -122.67687 20109 ft 531 kts 303°
2026-04-15 03:04 45.74558 -122.71514 18225 ft 546 kts 313°
2026-04-15 03:05 45.77396 -122.75190 16167 ft 551 kts 310°
2026-04-15 03:05 45.79931 -122.79204 15105 ft 510 kts 307°
2026-04-15 03:05 45.82066 -122.82783 13781 ft 445 kts 306°
2026-04-15 03:05 45.83964 -122.86047 12229 ft 406 kts 305°
2026-04-15 03:06 45.85601 -122.88876 10416 ft 292 kts 305°
2026-04-15 03:06 45.86873 -122.91028 8805 ft 296 kts 304°
2026-04-15 03:06 45.87703 -122.93448 7454 ft 284 kts 272°
2026-04-15 03:06 45.87341 -122.96031 7033 ft 266 kts 239°
2026-04-15 03:07 45.85969 -122.97757 6650 ft 271 kts 207°
2026-04-15 03:07 45.84234 -122.98818 5954 ft 270 kts 210°
2026-04-15 03:07 45.82579 -123.00089 5202 ft 269 kts 212°
2026-04-15 03:07 45.80975 -123.01432 4427 ft 268 kts 213°
2026-04-15 03:08 45.79309 -123.02630 4103 ft 278 kts 196°
2026-04-15 03:08 45.77415 -123.02431 4061 ft 285 kts 164°
2026-04-15 03:08 45.75932 -123.00789 4002 ft 259 kts 134°
2026-04-15 03:08 45.74851 -122.98854 3787 ft 248 kts 137°
2026-04-15 03:09 45.73756 -122.97032 3338 ft 234 kts 139°
2026-04-15 03:09 45.72723 -122.95329 3180 ft 224 kts 139°
2026-04-15 03:09 45.71769 -122.93605 3101 ft 227 kts 129°
2026-04-15 03:09 45.71042 -122.91596 3120 ft 228 kts 122°
2026-04-15 03:10 45.70391 -122.89507 3086 ft 227 kts 121°
2026-04-15 03:10 45.69760 -122.87412 3067 ft 227 kts 122°
2026-04-15 03:10 45.69078 -122.85396 3070 ft 223 kts 127°
2026-04-15 03:10 45.68207 -122.83577 3023 ft 223 kts 136°
2026-04-15 03:11 45.67260 -122.81860 2447 ft 214 kts 134°
2026-04-15 03:11 45.66418 -122.80140 2119 ft 212 kts 134°
2026-04-15 03:11 45.65591 -122.78384 2075 ft 219 kts 124°
2026-04-15 03:11 45.65125 -122.76254 2172 ft 225 kts 117°
2026-04-15 03:12 45.64381 -122.74340 2185 ft 216 kts 133°
2026-04-15 03:12 45.63498 -122.72641 1824 ft 205 kts 130°
2026-04-15 03:12 45.62879 -122.70774 1511 ft 213 kts 124°
2026-04-15 03:12 45.62200 -122.69017 1105 ft 188 kts 127°
2026-04-15 03:13 45.61581 -122.67485 861 ft 173 kts 123°
2026-04-15 03:13 45.61022 -122.66018 604 ft 181 kts 123°
2026-04-15 03:13 45.60387 -122.64353 434 ft 177 kts 123°
2026-04-15 03:13 45.59837 -122.62935 201 ft 167 kts 124°
2026-04-15 03:14 45.59295 -122.61560 29 ft 135 kts 126°
2026-04-15 03:14 45.58923 -122.60632 25 ft 87 kts 118°
2026-04-15 03:14 45.58681 -122.60000 28 ft 63 kts 118°
2026-04-15 03:14 45.58490 -122.59528 27 ft 48 kts 118°
2026-04-15 03:15 45.58368 -122.59267 26 ft 20 kts 154°
2026-04-15 03:15 45.58259 -122.59316 27 ft 15 kts 209°
2026-04-15 03:15 45.58175 -122.59334 26 ft 11 kts 137°
2026-04-15 03:15 45.58112 -122.59323 27 ft 14 kts 213°
2026-04-15 03:16 45.58036 -122.59384 28 ft 10 kts 185°
2026-04-15 03:16 45.57983 -122.59287 29 ft 15 kts 117°
2026-04-15 03:16 45.57944 -122.59169 27 ft 10 kts 88°
2026-04-15 03:16 45.57957 -122.59133 26 ft 0 kts 59°